THORAD AGENA D DEB, 42541

Orbit data source: Space-Track

THORAD AGENA D DEB, 42541 is space debris in SSO originally from a launch on Wed, 08 Apr 1970 UTC launched from the Air Force Western Test Range (AFWTR). Debris objects in space refer to the collection of defunct objects orbiting the Earth. Examples of debris include non-operational satellites, rocket bodies, and fragments generated from explosions, collisions, or faulty payload assembly.

Loading next visibility...
Identifier
42541, 1970-025SX
Orbit
SSO
Country
Flag of USUS
Related business
Manufacturer
Unknown
Mission
Spacecraft
Bus & Motor
Unknown
Mass
Unknown
Launch date (UTC)
1970-04-08 (56 years ago)
Launch vehicle
Unknown
Launch site
Air Force Western Test Range (AFWTR)
Object type
Payload
Rocket body
Debris
Shape & HBR
Unknown shape, 0.1 m
Radar Cross Section
Small (<0.1 m²)

Expand to show TLE details & history
Last TLE update: 1 day ago

TLE from 1 day ago
0 THORAD AGENA D DEB
1 42541U 70025SX  26035.56016500  .00000578  00000-0  67390-3 0  9997
2 42541 100.0749 292.0434 0031548 202.0167 277.2656 13.73264228610709
Epoch: 2026-02-04T13:26Z
TLE epoch observation values (Epoch: 2026-02-04T13:26:38.256Z)
Latitude
59.61185°
Longitude
153.20143°
Altitude
995.036 km
Speed
7.361 km/s
True Right ascension
08h 38m 20s
True Declination
59° 27' 59"
Sunlit
Object was in full shadow at epoch
Visualization orbit readout
Latitude
Unknown
Longitude
Unknown
Altitude
Unknown
Speed
Unknown
Apparent Right ascension
Unknown
Apparent Declination
Unknown
Sunlit
N/A
Visualization observer readout
Local Sidereal Time
16:36:53
Azimuth
Unknown
Elevation
Unknown
Doppler factor
Unknown
Orbital elements
Apogee altitude
1,008.395 km
Perigee altitude
961.936 km
Semi-major axis
7,363.302 km
Eccentricity
0.00315
Inclination
100.0749°
RAAN
292.0434°
Arg. of periapsis
202.0167°
True anomaly
276.90681°
Mean anomaly
277.2656°
Eccentric anomaly
277.08622°
Mean motion
3.43506 °/min
Orbital period
104.8 mins
BSTAR
0.0006739
Loading maneuver chart data...
Computing Atmospheric mass density...

Documentation

Showing up to 5 results
|